Location: Newark
(40.7119°N, 74.0097°W)
Time: 16:48:32
(UTC+00:00)

ISS - Pass Details

Date: 27 June 2021
Orbit: 419 x 421 km, 51.6° (Epoch: 02 August)

Event Time Altitude Azimuth Distance (km) Brightness Sun altitude
Exits shadow 08:27:55 14° 214° (SW) 1,286 -1.9 -9.7°
Maximum altitude 08:30:40 53° 139° (SE) 522 -3.3 -9.3°
Drops below altitude 10° 08:33:58 10° 62° (ENE) 1,500 0.6 -8.9°
Sets 08:36:06 0° 57° (ENE) 2,367 2.3 -8.6°
